TimeEST,TemperatureF,Dew PointF,Humidity,Sea Level PressureIn,VisibilityMPH,Wind Direction,Wind SpeedMPH,Gust SpeedMPH,PrecipitationIn,Events,Conditions,WindDirDegrees,DateUTC
12:53 AM,64.0,57.9,80,30.09,10.0,SW,9.2,-,N/A,,Clear,220,2013-03-06 05:53:00
1:53 AM,64.9,57.9,78,30.06,10.0,SW,10.4,-,N/A,,Clear,220,2013-03-06 06:53:00
2:53 AM,64.9,57.9,78,30.04,10.0,WSW,8.1,-,N/A,,Clear,240,2013-03-06 07:53:00
3:53 AM,64.9,57.9,78,30.04,10.0,SW,6.9,-,N/A,,Mostly Cloudy,230,2013-03-06 08:53:00
4:53 AM,66.0,57.9,75,30.03,10.0,SW,12.7,-,N/A,,Scattered Clouds,220,2013-03-06 09:53:00
5:53 AM,66.0,57.9,75,30.04,10.0,SW,12.7,-,N/A,,Partly Cloudy,220,2013-03-06 10:53:00
7:53 AM,69.1,60.1,73,30.06,10.0,SW,13.8,-,N/A,,Clear,220,2013-03-06 12:53:00
8:53 AM,71.1,61.0,70,30.07,10.0,SW,16.1,-,N/A,,Clear,220,2013-03-06 13:53:00
9:53 AM,69.1,61.0,75,30.10,10.0,WNW,15.0,25.3,N/A,,Overcast,300,2013-03-06 14:53:00
10:02 AM,66.2,59.0,78,30.11,8.0,NNW,11.5,21.9,N/A,,Overcast,330,2013-03-06 15:02:00
10:06 AM,66.2,59.0,78,30.11,8.0,NW,13.8,21.9,N/A,,Overcast,320,2013-03-06 15:06:00
10:53 AM,64.0,60.1,87,30.12,7.0,NW,9.2,-,0.00,,Overcast,320,2013-03-06 15:53:00
11:01 AM,64.4,60.8,88,30.12,8.0,NNW,10.4,-,N/A,,Overcast,330,2013-03-06 16:01:00
11:20 AM,66.2,57.2,73,30.12,9.0,NNW,9.2,17.3,N/A,,Overcast,340,2013-03-06 16:20:00
11:53 AM,66.9,57.0,70,30.12,9.0,NW,15.0,19.6,N/A,,Mostly Cloudy,310,2013-03-06 16:53:00
12:53 PM,66.9,51.1,57,30.09,10.0,West,11.5,-,N/A,,Clear,280,2013-03-06 17:53:00
1:53 PM,66.9,48.0,51,30.07,10.0,WNW,16.1,21.9,N/A,,Clear,290,2013-03-06 18:53:00
2:53 PM,66.0,48.9,54,30.06,10.0,NW,17.3,26.5,N/A,,Clear,310,2013-03-06 19:53:00
3:53 PM,64.0,46.9,54,30.06,10.0,NW,17.3,26.5,N/A,,Clear,310,2013-03-06 20:53:00
4:53 PM,63.0,44.1,50,30.07,10.0,NW,13.8,31.1,N/A,,Clear,320,2013-03-06 21:53:00
5:53 PM,62.1,43.0,50,30.08,10.0,NW,17.3,24.2,N/A,,Clear,310,2013-03-06 22:53:00
6:53 PM,60.1,43.0,53,30.10,10.0,NW,15.0,26.5,N/A,,Clear,310,2013-03-06 23:53:00
7:53 PM,59.0,43.0,55,30.11,10.0,NW,16.1,24.2,N/A,,Clear,320,2013-03-07 00:53:00
8:53 PM,59.0,45.0,60,30.11,10.0,NW,11.5,20.7,N/A,,Clear,320,2013-03-07 01:53:00
9:53 PM,59.0,44.1,58,30.13,10.0,NW,13.8,18.4,N/A,,Clear,320,2013-03-07 02:53:00
10:53 PM,59.0,43.0,55,30.13,10.0,NW,9.2,20.7,N/A,,Clear,320,2013-03-07 03:53:00
11:53 PM,57.0,43.0,59,30.14,10.0,North,9.2,-,N/A,,Clear,10,2013-03-07 04:53:00